Le nostre stazioni meteo in Italia

Pubblicità
Il mio iltempo24.it
Bari Palese, Italia (16270): Temperatura & dewpoint: 15.09.2018 05:00:00 - 21.09.2018 05:00:00 (CEST)Bari Palese, Italia (16270): velocità del vento: 15.09.2018 05:00:00 - 21.09.2018 05:00:00 (CEST)Bari Palese, Italia (16270): direzione del vento: 15.09.2018 05:00:00 - 21.09.2018 05:00:00 (CEST)Bari Palese, Italia (16270): reduced air pressure: 15.09.2018 05:00:00 - 21.09.2018 05:00:00 (CEST)Bari Palese, Italia (16270): visibility: 15.09.2018 05:00:00 - 21.09.2018 05:00:00 (CEST)Bari Palese, Italia (16270): precipitazioni: 15.09.2018 05:00:00 - 21.09.2018 05:00:00 (CEST)
Data & Tempo tt [°C] td [°C] ff [km/h] ff [kn] dd ppp [hPa] vv [km] rr [mm]
21.09.2018 05:00:00 - - - - - - - -
21.09.2018 04:00:00 - - - - - - - -
21.09.2018 03:00:00 - - - - - - - -
21.09.2018 02:00:00 19,1 17,5 9 5 OSO 1016,5 11 0,0
21.09.2018 01:00:00 - - - - - - - -
21.09.2018 00:00:00 - - - - - - - -
20.09.2018 23:00:00 20,3 18,2 8 4 OSO 1017,1 11 -
20.09.2018 22:00:00 - - - - - - - -
20.09.2018 21:00:00 - - - - - - - -
20.09.2018 20:00:00 21,9 18,6 4 2 ONO 1017,1 11 0,0
20.09.2018 19:00:00 - - - - - - - -
20.09.2018 18:00:00 - - - - - - - -
20.09.2018 17:00:00 24,6 19,7 8 4 NNE 1017,1 11 -
20.09.2018 16:00:00 - - - - - - - -
20.09.2018 15:00:00 - - - - - - - -
20.09.2018 14:00:00 25,3 20,2 16 9 NNE 1017,7 11 0,0
20.09.2018 13:00:00 - - - - - - - -
20.09.2018 12:00:00 - - - - - - - -
20.09.2018 11:00:00 24,5 19,5 9 5 N 1019,0 11 -
20.09.2018 10:00:00 - - - - - - - -
20.09.2018 09:00:00 - - - - - - - -
20.09.2018 08:00:00 22,3 18,2 8 4 O 1018,3 11 -
20.09.2018 07:00:00 - - - - - - - -
20.09.2018 06:00:00 - - - - - - - -
20.09.2018 05:00:00 20,6 18,3 4 2 SO 1017,8 11 -
20.09.2018 04:00:00 - - - - - - - -
20.09.2018 03:00:00 - - - - - - - -
20.09.2018 02:00:00 21,5 18,8 9 5 ONO 1018,6 11 -
20.09.2018 01:00:00 - - - - - - - -
20.09.2018 00:00:00 - - - - - - - -
19.09.2018 23:00:00 22,4 19,8 9 5 ONO 1018,9 11 -
19.09.2018 22:00:00 - - - - - - - -
19.09.2018 21:00:00 - - - - - - - -
19.09.2018 20:00:00 24,2 19,3 8 4 E 1018,3 11 0,0
19.09.2018 19:00:00 - - - - - - - -
19.09.2018 18:00:00 - - - - - - - -
19.09.2018 17:00:00 25,7 19,0 13 7 E 1017,5 8 -
19.09.2018 16:00:00 - - - - - - - -
19.09.2018 15:00:00 - - - - - - - -
19.09.2018 14:00:00 26,1 20,3 11 6 NE 1018,2 8 0,0
19.09.2018 13:00:00 - - - - - - - -
19.09.2018 12:00:00 - - - - - - - -
19.09.2018 11:00:00 25,8 20,2 11 6 N 1019,0 8 -
19.09.2018 10:00:00 - - - - - - - -
19.09.2018 09:00:00 - - - - - - - -
19.09.2018 08:00:00 23,1 18,1 5 3 OSO 1019,0 8 0,0
19.09.2018 07:00:00 - - - - - - - -
19.09.2018 06:00:00 - - - - - - - -
19.09.2018 05:00:00 19,4 15,7 8 4 OSO 1018,4 8 -
19.09.2018 04:00:00 - - - - - - - -
19.09.2018 03:00:00 - - - - - - - -
19.09.2018 02:00:00 19,8 15,4 9 5 SO 1018,6 8 0,0
19.09.2018 01:00:00 - - - - - - - -
19.09.2018 00:00:00 - - - - - - - -
18.09.2018 23:00:00 20,8 17,3 5 3 SO 1019,0 10 -
18.09.2018 22:00:00 - - - - - - - -
18.09.2018 21:00:00 - - - - - - - -
18.09.2018 20:00:00 23,8 18,4 5 3 ESE 1018,6 10 0,0
18.09.2018 19:00:00 - - - - - - - -
18.09.2018 18:00:00 - - - - - - - -
18.09.2018 17:00:00 26,6 18,7 16 9 E 1018,2 10 -
18.09.2018 16:00:00 - - - - - - - -
18.09.2018 15:00:00 - - - - - - - -
18.09.2018 14:00:00 27,5 16,8 26 14 E 1018,9 10 0,0
18.09.2018 13:00:00 - - - - - - - -
18.09.2018 12:00:00 - - - - - - - -
18.09.2018 11:00:00 26,3 17,2 8 4 NE 1020,2 10 -
18.09.2018 10:00:00 - - - - - - - -
18.09.2018 09:00:00 - - - - - - - -
18.09.2018 08:00:00 21,0 13,8 4 2 SO 1020,1 10 0,0
18.09.2018 07:00:00 - - - - - - - -
18.09.2018 06:00:00 - - - - - - - -
18.09.2018 05:00:00 17,5 11,8 11 6 SO 1019,3 10 -
18.09.2018 04:00:00 - - - - - - - -
18.09.2018 03:00:00 - - - - - - - -
18.09.2018 02:00:00 18,4 13,9 9 5 OSO 1019,3 10 0,0
18.09.2018 01:00:00 - - - - - - - -
18.09.2018 00:00:00 - - - - - - - -
17.09.2018 23:00:00 20,9 14,7 8 4 SO 1019,6 10 -
17.09.2018 22:00:00 - - - - - - - -
17.09.2018 21:00:00 - - - - - - - -
17.09.2018 20:00:00 22,9 14,0 5 3 ESE 1019,5 10 0,0
17.09.2018 19:00:00 - - - - - - - -
17.09.2018 18:00:00 - - - - - - - -
17.09.2018 17:00:00 26,2 19,1 18 10 E 1019,1 10 -
17.09.2018 16:00:00 - - - - - - - -
17.09.2018 15:00:00 - - - - - - - -
17.09.2018 14:00:00 26,5 20,0 16 9 E 1020,8 10 0,0
17.09.2018 13:00:00 - - - - - - - -
17.09.2018 12:00:00 - - - - - - - -
17.09.2018 11:00:00 26,3 19,6 9 5 NE 1021,5 10 -
17.09.2018 10:00:00 - - - - - - - -
17.09.2018 09:00:00 - - - - - - - -
17.09.2018 08:00:00 21,9 18,9 5 3 OSO 1021,3 7 0,0
17.09.2018 07:00:00 - - - - - - - -
17.09.2018 06:00:00 - - - - - - - -
17.09.2018 05:00:00 18,3 16,5 8 4 SO 1021,0 7 -
17.09.2018 04:00:00 - - - - - - - -
17.09.2018 03:00:00 - - - - - - - -
17.09.2018 02:00:00 19,1 16,3 8 4 O 1021,1 7 0,0
17.09.2018 01:00:00 - - - - - - - -
17.09.2018 00:00:00 - - - - - - - -
16.09.2018 23:00:00 19,8 17,8 5 3 SO 1021,5 7 -
16.09.2018 22:00:00 - - - - - - - -
16.09.2018 21:00:00 - - - - - - - -
16.09.2018 20:00:00 22,6 19,1 2 1 ONO 1021,0 20 0,0
16.09.2018 19:00:00 - - - - - - - -
16.09.2018 18:00:00 - - - - - - - -
16.09.2018 17:00:00 25,2 19,8 11 6 NNE 1020,6 20 -
16.09.2018 16:00:00 - - - - - - - -
16.09.2018 15:00:00 - - - - - - - -
16.09.2018 14:00:00 26,0 19,3 18 10 NE 1021,4 10 0,0
16.09.2018 13:00:00 - - - - - - - -
16.09.2018 12:00:00 - - - - - - - -
16.09.2018 11:00:00 26,3 16,7 15 8 N 1022,2 10 -
16.09.2018 10:00:00 - - - - - - - -
16.09.2018 09:00:00 - - - - - - - -
16.09.2018 08:00:00 23,4 18,4 9 5 O 1021,3 10 0,0
16.09.2018 07:00:00 - - - - - - - -
16.09.2018 06:00:00 - - - - - - - -
16.09.2018 05:00:00 18,4 14,2 8 4 SO 1020,7 10 -
16.09.2018 04:00:00 - - - - - - - -
16.09.2018 03:00:00 - - - - - - - -
16.09.2018 02:00:00 18,6 15,4 9 5 SO 1021,2 10 0,0
16.09.2018 01:00:00 - - - - - - - -
16.09.2018 00:00:00 - - - - - - - -
15.09.2018 23:00:00 20,1 16,5 8 4 SO 1020,5 10 -
15.09.2018 22:00:00 - - - - - - - -
15.09.2018 21:00:00 - - - - - - - -
15.09.2018 20:00:00 22,3 18,0 4 2 ENE 1019,7 10 0,0
15.09.2018 19:00:00 - - - - - - - -
15.09.2018 18:00:00 - - - - - - - -
15.09.2018 17:00:00 26,1 16,7 11 6 E 1018,5 10 -
15.09.2018 16:00:00 - - - - - - - -
15.09.2018 15:00:00 - - - - - - - -
15.09.2018 14:00:00 27,0 16,2 16 9 ENE 1019,1 10 0,0
15.09.2018 13:00:00 - - - - - - - -
15.09.2018 12:00:00 - - - - - - - -
15.09.2018 11:00:00 26,5 15,0 13 7 ENE 1019,3 10 -
15.09.2018 10:00:00 - - - - - - - -
15.09.2018 09:00:00 - - - - - - - -
15.09.2018 08:00:00 21,2 16,4 8 4 SO 1018,2 10 0,0
15.09.2018 07:00:00 - - - - - - - -
15.09.2018 06:00:00 - - - - - - - -
15.09.2018 05:00:00 18,1 15,0 9 5 SO 1017,1 10 -

tt = Temperatura
td = dewpoint
ff = velocità del vento
dd = direzione del vento
ppp = reduced air pressure
vv = visibility
rr = precipitazioni

Stazioni seguenti

WeatherPro
AMSI
MeteoEarth